Time,TemperatureF,DewpointF,PressureIn,WindDirection,WindDirectionDegrees,WindSpeedMPH,WindSpeedGustMPH,Humidity,HourlyPrecipIn,Conditions,Clouds,dailyrainin,SoftwareType,DateUTC
2013-03-12 13:58:00,71.0,64.9,29.95,SSW,194,9.0,9.0,81,0.00,,,0.00,Wunderground v.1.15,2013-03-12 17:58:00,
2013-03-12 14:24:00,70.0,63.9,29.95,SW,227,12.0,16.0,81,0.00,,,0.00,Wunderground v.1.15,2013-03-12 18:24:00,
2013-03-12 14:26:00,70.0,63.9,29.95,South,190,11.0,17.0,81,0.00,,,0.00,Wunderground v.1.15,2013-03-12 18:26:00,
2013-03-12 14:28:00,69.8,63.7,29.95,SSW,206,11.0,17.0,81,0.00,,,0.00,Wunderground v.1.15,2013-03-12 18:28:00,
2013-03-12 14:30:00,69.5,63.8,29.95,SSW,198,12.0,17.0,82,0.00,,,0.00,Wunderground v.1.15,2013-03-12 18:30:00,
2013-03-12 14:38:00,68.9,63.2,29.95,WSW,237,11.0,12.0,82,0.00,,,0.00,Wunderground v.1.15,2013-03-12 18:38:00,
2013-03-12 14:44:00,68.3,62.9,29.95,WNW,288,9.0,10.0,83,0.00,,,0.00,Wunderground v.1.15,2013-03-12 18:44:00,
2013-03-12 14:50:00,66.6,60.9,29.95,WNW,303,8.0,10.0,82,0.00,,,0.00,Wunderground v.1.15,2013-03-12 18:50:00,
2013-03-12 14:56:00,65.7,60.1,29.95,WNW,284,7.0,8.0,82,0.00,,,0.00,Wunderground v.1.15,2013-03-12 18:56:00,
2013-03-12 15:02:00,65.4,59.8,29.96,WNW,299,5.0,9.0,82,0.00,,,0.00,Wunderground v.1.15,2013-03-12 19:02:00,
2013-03-12 15:08:00,65.2,59.9,29.96,NNW,329,6.0,13.0,83,0.00,,,0.00,Wunderground v.1.15,2013-03-12 19:08:00,
2013-03-12 15:14:00,65.0,59.7,29.96,NW,306,6.0,7.0,83,0.00,,,0.00,Wunderground v.1.15,2013-03-12 19:14:00,
2013-03-12 15:20:00,64.9,59.3,29.96,NW,307,6.0,6.0,82,0.00,,,0.00,Wunderground v.1.15,2013-03-12 19:20:00,
2013-03-12 15:28:00,64.6,59.3,29.96,NW,318,7.0,11.0,83,0.00,,,0.00,Wunderground v.1.15,2013-03-12 19:28:00,
2013-03-12 15:34:00,64.3,59.0,29.95,NNW,328,7.0,10.0,83,0.00,,,0.00,Wunderground v.1.15,2013-03-12 19:34:00,
2013-03-12 15:40:00,64.3,59.0,29.95,NW,306,6.0,6.0,83,0.00,,,0.00,Wunderground v.1.15,2013-03-12 19:40:00,
2013-03-12 15:46:00,64.3,59.0,29.95,WNW,298,5.0,7.0,83,0.00,,,0.00,Wunderground v.1.15,2013-03-12 19:46:00,
2013-03-12 15:52:00,64.2,58.9,29.95,WNW,291,5.0,6.0,83,0.00,,,0.00,Wunderground v.1.15,2013-03-12 19:52:00,
2013-03-12 15:58:00,63.9,58.6,29.95,NW,319,5.0,9.0,83,0.00,,,0.00,Wunderground v.1.15,2013-03-12 19:58:00,
2013-03-12 16:04:00,63.9,58.6,29.95,WNW,288,6.0,8.0,83,0.00,,,0.00,Wunderground v.1.15,2013-03-12 20:04:00,
2013-03-12 16:10:00,63.9,58.6,29.95,WNW,292,6.0,8.0,83,0.00,,,0.00,Wunderground v.1.15,2013-03-12 20:10:00,
2013-03-12 16:16:00,63.8,58.5,29.95,West,279,6.0,8.0,83,0.00,,,0.00,Wunderground v.1.15,2013-03-12 20:16:00,
2013-03-12 16:22:00,64.0,58.7,29.94,NW,309,6.0,6.0,83,0.00,,,0.00,Wunderground v.1.15,2013-03-12 20:22:00,
2013-03-12 16:28:00,64.1,58.8,29.95,WNW,298,5.0,9.0,83,0.00,,,0.00,Wunderground v.1.15,2013-03-12 20:28:00,
2013-03-12 16:34:00,64.2,58.9,29.95,NW,311,5.0,10.0,83,0.00,,,0.00,Wunderground v.1.15,2013-03-12 20:34:00,
2013-03-12 16:40:00,64.3,59.0,29.95,NW,312,5.0,10.0,83,0.00,,,0.00,Wunderground v.1.15,2013-03-12 20:40:00,
2013-03-12 16:46:00,64.5,59.2,29.95,NW,315,5.0,5.0,83,0.00,,,0.00,Wunderground v.1.15,2013-03-12 20:46:00,
2013-03-12 16:52:00,64.7,59.4,29.95,NNW,329,5.0,5.0,83,0.00,,,0.00,Wunderground v.1.15,2013-03-12 20:52:00,
2013-03-12 16:58:00,64.9,59.6,29.95,West,277,5.0,5.0,83,0.00,,,0.00,Wunderground v.1.15,2013-03-12 20:58:00,
2013-03-12 17:04:00,64.9,59.6,29.95,NW,309,6.0,6.0,83,0.00,,,0.00,Wunderground v.1.15,2013-03-12 21:04:00,
2013-03-12 17:10:00,64.9,59.3,29.95,NNW,340,6.0,6.0,82,0.00,,,0.00,Wunderground v.1.15,2013-03-12 21:10:00,
2013-03-12 17:16:00,65.2,59.6,29.95,NW,305,5.0,7.0,82,0.00,,,0.00,Wunderground v.1.15,2013-03-12 21:16:00,
2013-03-12 17:22:00,65.2,59.6,29.94,NW,312,5.0,7.0,82,0.00,,,0.00,Wunderground v.1.15,2013-03-12 21:22:00,
2013-03-12 17:28:00,65.4,59.8,29.94,NW,304,5.0,9.0,82,0.00,,,0.00,Wunderground v.1.15,2013-03-12 21:28:00,
2013-03-12 17:34:00,65.5,59.5,29.94,NNW,327,6.0,8.0,81,0.00,,,0.00,Wunderground v.1.15,2013-03-12 21:34:00,
2013-03-12 17:40:00,65.6,59.6,29.94,NW,309,5.0,5.0,81,0.00,,,0.00,Wunderground v.1.15,2013-03-12 21:40:00,
2013-03-12 17:46:00,65.7,59.7,29.94,NW,306,5.0,5.0,81,0.00,,,0.00,Wunderground v.1.15,2013-03-12 21:46:00,
2013-03-12 17:52:00,65.6,59.6,29.94,NW,317,6.0,6.0,81,0.00,,,0.00,Wunderground v.1.15,2013-03-12 21:52:00,
2013-03-12 17:58:00,65.6,59.6,29.94,NNW,340,6.0,9.0,81,0.00,,,0.00,Wunderground v.1.15,2013-03-12 21:58:00,
2013-03-12 18:04:00,65.6,59.6,29.94,NNW,348,6.0,7.0,81,0.00,,,0.00,Wunderground v.1.15,2013-03-12 22:04:00,
2013-03-12 18:10:00,65.5,59.5,29.95,NW,323,6.0,7.0,81,0.00,,,0.00,Wunderground v.1.15,2013-03-12 22:10:00,
2013-03-12 18:16:00,65.6,59.6,29.95,NNW,333,5.0,10.0,81,0.00,,,0.00,Wunderground v.1.15,2013-03-12 22:16:00,
2013-03-12 18:22:00,65.5,60.2,29.95,NW,323,5.0,9.0,83,0.00,,,0.00,Wunderground v.1.15,2013-03-12 22:22:00,
2013-03-12 18:28:00,65.3,59.3,29.95,NW,323,5.0,9.0,81,0.00,,,0.00,Wunderground v.1.15,2013-03-12 22:28:00,
2013-03-12 18:34:00,65.1,59.1,29.95,NNW,337,6.0,10.0,81,0.00,,,0.00,Wunderground v.1.15,2013-03-12 22:34:00,
2013-03-12 18:40:00,65.0,59.0,29.95,NW,326,6.0,10.0,81,0.00,,,0.00,Wunderground v.1.15,2013-03-12 22:40:00,
2013-03-12 18:46:00,65.0,59.0,29.95,WNW,298,5.0,7.0,81,0.00,,,0.00,Wunderground v.1.15,2013-03-12 22:46:00,
2013-03-12 18:52:00,65.0,59.0,29.95,NW,305,5.0,5.0,81,0.00,,,0.00,Wunderground v.1.15,2013-03-12 22:52:00,
2013-03-12 18:58:00,65.0,59.0,29.96,NW,324,5.0,5.0,81,0.00,,,0.00,Wunderground v.1.15,2013-03-12 22:58:00,
2013-03-12 19:04:00,65.0,59.0,29.97,NW,325,3.0,7.0,81,0.00,,,0.00,Wunderground v.1.15,2013-03-12 23:04:00,
2013-03-12 19:10:00,64.9,58.9,29.97,NW,317,4.0,4.0,81,0.00,,,0.00,Wunderground v.1.15,2013-03-12 23:10:00,
2013-03-12 19:16:00,64.8,58.8,29.97,NNW,348,4.0,9.0,81,0.00,,,0.00,Wunderground v.1.15,2013-03-12 23:16:00,
2013-03-12 19:22:00,64.6,58.6,29.97,NW,322,5.0,5.0,81,0.00,,,0.00,Wunderground v.1.15,2013-03-12 23:22:00,
2013-03-12 19:28:00,64.4,58.4,29.97,NW,313,5.0,7.0,81,0.00,,,0.00,Wunderground v.1.15,2013-03-12 23:28:00,
2013-03-12 19:34:00,64.4,58.4,29.98,NNW,332,4.0,8.0,81,0.00,,,0.00,Wunderground v.1.15,2013-03-12 23:34:00,
2013-03-12 19:40:00,64.2,57.9,29.98,NW,319,4.0,7.0,80,0.00,,,0.00,Wunderground v.1.15,2013-03-12 23:40:00,
2013-03-12 19:48:00,64.1,58.1,29.98,NW,315,5.0,9.0,81,0.00,,,0.00,Wunderground v.1.15,2013-03-12 23:48:00,
2013-03-12 19:54:00,64.1,58.1,29.98,WNW,296,5.0,5.0,81,0.00,,,0.00,Wunderground v.1.15,2013-03-12 23:54:00,
2013-03-12 20:00:00,64.0,58.1,29.98,NW,311,5.0,5.0,81,0.00,,,0.00,Wunderground v.1.15,2013-03-13 00:00:00,
2013-03-12 20:06:00,63.9,58.0,29.98,WNW,298,5.0,6.0,81,0.00,,,0.00,Wunderground v.1.15,2013-03-13 00:06:00,
2013-03-12 20:12:00,63.8,57.9,29.99,WNW,300,4.0,4.0,81,0.00,,,0.00,Wunderground v.1.15,2013-03-13 00:12:00,
2013-03-12 20:18:00,63.6,57.3,29.99,NW,305,4.0,6.0,80,0.00,,,0.00,Wunderground v.1.15,2013-03-13 00:18:00,
2013-03-12 20:24:00,63.4,57.1,30.00,NW,319,4.0,8.0,80,0.00,,,0.00,Wunderground v.1.15,2013-03-13 00:24:00,
2013-03-12 20:30:00,63.2,57.3,30.00,WNW,298,4.0,6.0,81,0.00,,,0.00,Wunderground v.1.15,2013-03-13 00:30:00,
2013-03-12 20:38:00,62.9,57.0,30.00,NW,311,4.0,7.0,81,0.00,,,0.00,Wunderground v.1.15,2013-03-13 00:38:00,
2013-03-12 20:44:00,62.7,56.4,30.00,NW,313,5.0,5.0,80,0.00,,,0.00,Wunderground v.1.15,2013-03-13 00:44:00,
2013-03-12 20:50:00,62.5,56.2,30.00,NNW,333,5.0,5.0,80,0.00,,,0.00,Wunderground v.1.15,2013-03-13 00:50:00,
2013-03-12 20:58:00,62.4,56.1,30.00,NNW,331,6.0,7.0,80,0.00,,,0.00,Wunderground v.1.15,2013-03-13 00:58:00,
2013-03-12 21:04:00,62.3,56.0,30.00,NW,323,6.0,8.0,80,0.00,,,0.00,Wunderground v.1.15,2013-03-13 01:04:00,
2013-03-12 21:10:00,62.3,56.0,30.00,NW,325,6.0,12.0,80,0.00,,,0.00,Wunderground v.1.15,2013-03-13 01:10:00,
2013-03-12 21:18:00,62.2,56.0,30.00,NW,324,5.0,7.0,80,0.00,,,0.00,Wunderground v.1.15,2013-03-13 01:18:00,
2013-03-12 21:24:00,62.2,56.0,30.00,NNW,332,5.0,6.0,80,0.00,,,0.00,Wunderground v.1.15,2013-03-13 01:24:00,
2013-03-12 21:30:00,62.1,55.9,30.00,NNW,327,5.0,6.0,80,0.00,,,0.00,Wunderground v.1.15,2013-03-13 01:30:00,
2013-03-12 21:36:00,62.1,55.9,30.00,NW,313,5.0,7.0,80,0.00,,,0.00,Wunderground v.1.15,2013-03-13 01:36:00,
2013-03-12 21:42:00,62.0,55.4,30.00,NW,321,5.0,5.0,79,0.00,,,0.00,Wunderground v.1.15,2013-03-13 01:42:00,
2013-03-12 21:48:00,62.1,55.5,30.01,NNW,343,5.0,8.0,79,0.00,,,0.00,Wunderground v.1.15,2013-03-13 01:48:00,
2013-03-12 21:54:00,62.0,55.4,30.01,WNW,302,5.0,9.0,79,0.00,,,0.00,Wunderground v.1.15,2013-03-13 01:54:00,
2013-03-12 22:00:00,62.1,55.5,30.02,NW,323,6.0,6.0,79,0.00,,,0.00,Wunderground v.1.15,2013-03-13 02:00:00,
2013-03-12 22:06:00,62.1,55.2,30.02,NW,315,6.0,10.0,78,0.00,,,0.00,Wunderground v.1.15,2013-03-13 02:06:00,
2013-03-12 22:12:00,62.2,55.3,30.01,NW,317,7.0,7.0,78,0.00,,,0.00,Wunderground v.1.15,2013-03-13 02:12:00,
2013-03-12 22:18:00,62.1,55.2,30.02,NW,319,6.0,7.0,78,0.00,,,0.00,Wunderground v.1.15,2013-03-13 02:18:00,
2013-03-12 22:24:00,62.1,55.2,30.02,NW,319,5.0,7.0,78,0.00,,,0.00,Wunderground v.1.15,2013-03-13 02:24:00,
2013-03-12 22:30:00,62.2,55.3,30.02,NW,324,6.0,7.0,78,0.00,,,0.00,Wunderground v.1.15,2013-03-13 02:30:00,
2013-03-12 22:36:00,62.2,55.3,30.02,NNW,333,6.0,7.0,78,0.00,,,0.00,Wunderground v.1.15,2013-03-13 02:36:00,
2013-03-12 22:42:00,62.2,54.9,30.03,NNW,328,7.0,7.0,77,0.00,,,0.00,Wunderground v.1.15,2013-03-13 02:42:00,
2013-03-12 22:48:00,62.2,54.9,30.02,NNW,334,7.0,11.0,77,0.00,,,0.00,Wunderground v.1.15,2013-03-13 02:48:00,
2013-03-12 22:54:00,62.1,55.2,30.03,North,350,6.0,10.0,78,0.00,,,0.00,Wunderground v.1.15,2013-03-13 02:54:00,
2013-03-12 23:00:00,62.1,55.2,30.02,NNW,338,6.0,7.0,78,0.00,,,0.00,Wunderground v.1.15,2013-03-13 03:00:00,
2013-03-12 23:08:00,62.0,54.7,30.03,NW,320,7.0,9.0,77,0.00,,,0.00,Wunderground v.1.15,2013-03-13 03:08:00,
2013-03-12 23:14:00,62.0,54.7,30.03,NW,322,7.0,8.0,77,0.00,,,0.00,Wunderground v.1.15,2013-03-13 03:14:00,
2013-03-12 23:20:00,62.0,55.1,30.03,NW,321,6.0,7.0,78,0.00,,,0.00,Wunderground v.1.15,2013-03-13 03:20:00,
2013-03-12 23:26:00,61.8,54.9,30.04,NW,318,5.0,7.0,78,0.00,,,0.00,Wunderground v.1.15,2013-03-13 03:26:00,
2013-03-12 23:32:00,61.7,54.8,30.04,NW,317,5.0,10.0,78,0.00,,,0.00,Wunderground v.1.15,2013-03-13 03:32:00,
2013-03-12 23:38:00,61.7,54.8,30.04,NW,324,6.0,10.0,78,0.00,,,0.00,Wunderground v.1.15,2013-03-13 03:38:00,
2013-03-12 23:44:00,61.6,54.7,30.04,NNW,331,6.0,8.0,78,0.00,,,0.00,Wunderground v.1.15,2013-03-13 03:44:00,
2013-03-12 23:50:00,61.5,54.6,30.04,NNW,340,6.0,6.0,78,0.00,,,0.00,Wunderground v.1.15,2013-03-13 03:50:00,
2013-03-12 23:56:00,61.5,54.6,30.04,NNW,346,6.0,8.0,78,0.00,,,0.00,Wunderground v.1.15,2013-03-13 03:56:00,